contact:dominique.lefevre@mio.osupytheas.fr, maurice.libes@osupytheas.fr, didier.mallarino@osupytheas.fr
Project:EMSO http://www.emso-fr.org/EMSO-France
Depth: 2436.0 m
Title:EMSO Ligure Ouest : Data MII capteur MICROCAT
DateTime_Computer,Latitude,Longitude,Temperature,Conductivity,Pressure,DateTime_Instrument
DateTime_Computer,Latitude,Longitude,degC,S m-1,dbar,DateTime_Instrument
2021-11-08T00:01:34Z,42.805,6.029,13.2991,4.60011,2470.413,2021-11-08T02:03:00Z
2021-11-08T00:04:38Z,42.805,6.029,13.2992,4.60011,2470.376,2021-11-08T02:06:03Z
2021-11-08T00:07:41Z,42.805,6.029,13.2991,4.60013,2470.413,2021-11-08T02:09:06Z
2021-11-08T00:10:44Z,42.805,6.029,13.2992,4.60013,2470.39,2021-11-08T02:12:09Z
2021-11-08T00:13:47Z,42.805,6.029,13.2993,4.60011,2470.413,2021-11-08T02:15:12Z
2021-11-08T00:16:50Z,42.805,6.029,13.2994,4.60011,2470.39,2021-11-08T02:18:15Z
2021-11-08T00:19:53Z,42.805,6.029,13.2992,4.60013,2470.413,2021-11-08T02:21:18Z
2021-11-08T00:22:56Z,42.805,6.029,13.2991,4.60013,2470.39,2021-11-08T02:24:22Z
2021-11-08T00:25:59Z,42.805,6.029,13.2995,4.60013,2470.366,2021-11-08T02:27:25Z
2021-11-08T00:29:02Z,42.805,6.029,13.2991,4.60011,2470.39,2021-11-08T02:30:28Z
2021-11-08T00:32:06Z,42.805,6.029,13.2993,4.60011,2470.437,2021-11-08T02:33:31Z
2021-11-08T00:35:09Z,42.805,6.029,13.2990,4.60011,2470.39,2021-11-08T02:36:34Z
2021-11-08T00:38:12Z,42.805,6.029,13.2994,4.60014,2470.437,2021-11-08T02:39:37Z
2021-11-08T00:41:15Z,42.805,6.029,13.2991,4.60011,2470.38,2021-11-08T02:42:40Z
2021-11-08T00:44:18Z,42.805,6.029,13.2991,4.60014,2470.413,2021-11-08T02:45:43Z
2021-11-08T00:47:21Z,42.805,6.029,13.2993,4.60013,2470.39,2021-11-08T02:48:47Z
2021-11-08T00:50:24Z,42.805,6.029,13.2991,4.60012,2470.404,2021-11-08T02:51:50Z
2021-11-08T00:53:27Z,42.805,6.029,13.2996,4.60013,2470.404,2021-11-08T02:54:53Z
2021-11-08T00:56:31Z,42.805,6.029,13.2990,4.60011,2470.39,2021-11-08T02:57:56Z
2021-11-08T00:59:34Z,42.805,6.029,13.2992,4.60011,2470.404,2021-11-08T03:00:59Z
2021-11-08T01:02:37Z,42.805,6.029,13.2989,4.60009,2470.366,2021-11-08T03:04:02Z
2021-11-08T01:05:40Z,42.805,6.029,13.2991,4.60011,2470.39,2021-11-08T03:07:05Z
2021-11-08T01:08:43Z,42.805,6.029,13.2994,4.60012,2470.38,2021-11-08T03:10:08Z
2021-11-08T01:11:46Z,42.805,6.029,13.2991,4.60011,2470.366,2021-11-08T03:13:12Z
2021-11-08T01:14:49Z,42.805,6.029,13.2992,4.60013,2470.39,2021-11-08T03:16:15Z
2021-11-08T01:17:52Z,42.805,6.029,13.2992,4.60011,2470.343,2021-11-08T03:19:18Z
2021-11-08T01:20:55Z,42.805,6.029,13.2990,4.60009,2470.343,2021-11-08T03:22:21Z
2021-11-08T01:23:59Z,42.805,6.029,13.2996,4.60010,2470.39,2021-11-08T03:25:24Z
2021-11-08T01:27:02Z,42.805,6.029,13.2993,4.60014,2470.357,2021-11-08T03:28:27Z
2021-11-08T01:30:05Z,42.805,6.029,13.2992,4.60014,2470.38,2021-11-08T03:31:30Z
2021-11-08T01:33:08Z,42.805,6.029,13.2990,4.60014,2470.357,2021-11-08T03:34:33Z
2021-11-08T01:36:11Z,42.805,6.029,13.2992,4.60011,2470.38,2021-11-08T03:37:36Z
2021-11-08T01:39:14Z,42.805,6.029,13.2992,4.60014,2470.343,2021-11-08T03:40:40Z
2021-11-08T01:42:17Z,42.805,6.029,13.2990,4.60011,2470.343,2021-11-08T03:43:43Z
2021-11-08T01:45:20Z,42.805,6.029,13.2990,4.60011,2470.357,2021-11-08T03:46:46Z
2021-11-08T01:48:24Z,42.805,6.029,13.2991,4.60010,2470.366,2021-11-08T03:49:49Z
2021-11-08T01:51:27Z,42.805,6.029,13.2990,4.60011,2470.366,2021-11-08T03:52:52Z
2021-11-08T01:54:30Z,42.805,6.029,13.2993,4.60011,2470.366,2021-11-08T03:55:55Z
2021-11-08T01:57:33Z,42.805,6.029,13.2993,4.60011,2470.39,2021-11-08T03:58:58Z
2021-11-08T02:00:36Z,42.805,6.029,13.2991,4.60014,2470.38,2021-11-08T04:02:01Z
2021-11-08T02:03:39Z,42.805,6.029,13.2991,4.60014,2470.343,2021-11-08T04:05:05Z
2021-11-08T02:06:42Z,42.805,6.029,13.2987,4.60013,2470.31,2021-11-08T04:08:08Z
2021-11-08T02:09:45Z,42.805,6.029,13.2991,4.60011,2470.32,2021-11-08T04:11:11Z
2021-11-08T02:12:48Z,42.805,6.029,13.2992,4.60013,2470.334,2021-11-08T04:14:14Z
2021-11-08T02:15:52Z,42.805,6.029,13.2991,4.60011,2470.357,2021-11-08T04:17:17Z
2021-11-08T02:18:55Z,42.805,6.029,13.2991,4.60011,2470.297,2021-11-08T04:20:20Z
2021-11-08T02:21:58Z,42.805,6.029,13.2991,4.60011,2470.334,2021-11-08T04:23:23Z
2021-11-08T02:25:01Z,42.805,6.029,13.2993,4.60013,2470.334,2021-11-08T04:26:26Z
2021-11-08T02:28:04Z,42.805,6.029,13.2992,4.60014,2470.343,2021-11-08T04:29:29Z
2021-11-08T02:31:07Z,42.805,6.029,13.2990,4.60012,2470.347,2021-11-08T04:32:33Z
2021-11-08T02:34:10Z,42.805,6.029,13.2988,4.60013,2470.357,2021-11-08T04:35:36Z
2021-11-08T02:37:13Z,42.805,6.029,13.2994,4.60013,2470.366,2021-11-08T04:38:39Z
2021-11-08T02:40:17Z,42.805,6.029,13.2993,4.60011,2470.343,2021-11-08T04:41:42Z
2021-11-08T02:43:20Z,42.805,6.029,13.2993,4.60012,2470.297,2021-11-08T04:44:45Z
2021-11-08T02:46:23Z,42.805,6.029,13.2989,4.60013,2470.357,2021-11-08T04:47:48Z
2021-11-08T02:49:26Z,42.805,6.029,13.2992,4.60010,2470.334,2021-11-08T04:50:51Z
2021-11-08T02:52:29Z,42.805,6.029,13.2988,4.60013,2470.366,2021-11-08T04:53:54Z
2021-11-08T02:55:32Z,42.805,6.029,13.2993,4.60014,2470.32,2021-11-08T04:56:58Z
2021-11-08T02:58:35Z,42.805,6.029,13.2994,4.60013,2470.297,2021-11-08T05:00:01Z
2021-11-08T03:01:38Z,42.805,6.029,13.2991,4.60010,2470.297,2021-11-08T05:03:04Z
2021-11-08T03:04:41Z,42.805,6.029,13.2994,4.60011,2470.297,2021-11-08T05:06:07Z
2021-11-08T03:07:45Z,42.805,6.029,13.2991,4.60011,2470.334,2021-11-08T05:09:10Z
2021-11-08T03:10:48Z,42.805,6.029,13.2991,4.60013,2470.31,2021-11-08T05:12:13Z
2021-11-08T03:13:51Z,42.805,6.029,13.2991,4.60011,2470.297,2021-11-08T05:15:16Z
2021-11-08T03:16:54Z,42.805,6.029,13.2991,4.60014,2470.287,2021-11-08T05:18:19Z
2021-11-08T03:19:57Z,42.805,6.029,13.2991,4.60011,2470.273,2021-11-08T05:21:22Z
2021-11-08T03:23:00Z,42.805,6.029,13.2992,4.60012,2470.31,2021-11-08T05:24:26Z
2021-11-08T03:26:03Z,42.805,6.029,13.2990,4.60011,2470.25,2021-11-08T05:27:29Z
2021-11-08T03:29:06Z,42.805,6.029,13.2991,4.60011,2470.297,2021-11-08T05:30:32Z
2021-11-08T03:32:10Z,42.805,6.029,13.2991,4.60012,2470.297,2021-11-08T05:33:35Z
2021-11-08T03:35:13Z,42.805,6.029,13.2991,4.60011,2470.31,2021-11-08T05:36:38Z
2021-11-08T03:38:16Z,42.805,6.029,13.2990,4.60011,2470.343,2021-11-08T05:39:41Z
2021-11-08T03:41:19Z,42.805,6.029,13.2993,4.60011,2470.31,2021-11-08T05:42:44Z
2021-11-08T03:44:22Z,42.805,6.029,13.2990,4.60011,2470.287,2021-11-08T05:45:47Z
2021-11-08T03:47:25Z,42.805,6.029,13.2991,4.60010,2470.31,2021-11-08T05:48:51Z
2021-11-08T03:50:28Z,42.805,6.029,13.2990,4.60011,2470.287,2021-11-08T05:51:54Z
2021-11-08T03:53:31Z,42.805,6.029,13.2991,4.60014,2470.273,2021-11-08T05:54:57Z
2021-11-08T03:56:35Z,42.805,6.029,13.2992,4.60010,2470.287,2021-11-08T05:58:00Z
2021-11-08T03:59:38Z,42.805,6.029,13.2992,4.60011,2470.264,2021-11-08T06:01:03Z
2021-11-08T04:02:41Z,42.805,6.029,13.2989,4.60012,2470.31,2021-11-08T06:04:06Z
2021-11-08T04:05:44Z,42.805,6.029,13.2993,4.60013,2470.25,2021-11-08T06:07:09Z
2021-11-08T04:08:47Z,42.805,6.029,13.2990,4.60011,2470.25,2021-11-08T06:10:12Z
2021-11-08T04:11:50Z,42.805,6.029,13.2992,4.60013,2470.287,2021-11-08T06:13:16Z
2021-11-08T04:14:53Z,42.805,6.029,13.2992,4.60012,2470.25,2021-11-08T06:16:19Z
2021-11-08T04:17:56Z,42.805,6.029,13.2988,4.60010,2470.227,2021-11-08T06:19:22Z
2021-11-08T04:20:59Z,42.805,6.029,13.2993,4.60011,2470.273,2021-11-08T06:22:25Z
2021-11-08T04:24:03Z,42.805,6.029,13.2994,4.60013,2470.273,2021-11-08T06:25:28Z
2021-11-08T04:27:06Z,42.805,6.029,13.2991,4.60011,2470.287,2021-11-08T06:28:31Z
2021-11-08T04:30:09Z,42.805,6.029,13.2992,4.60014,2470.287,2021-11-08T06:31:34Z
2021-11-08T04:33:12Z,42.805,6.029,13.2991,4.60011,2470.264,2021-11-08T06:34:37Z
2021-11-08T04:36:15Z,42.805,6.029,13.2989,4.60009,2470.287,2021-11-08T06:37:40Z
2021-11-08T04:39:18Z,42.805,6.029,13.2991,4.60011,2470.273,2021-11-08T06:40:44Z
2021-11-08T04:42:21Z,42.805,6.029,13.2990,4.60011,2470.297,2021-11-08T06:43:47Z
2021-11-08T04:45:24Z,42.805,6.029,13.2992,4.60009,2470.297,2021-11-08T06:46:50Z
2021-11-08T04:48:28Z,42.805,6.029,13.2992,4.60011,2470.25,2021-11-08T06:49:53Z
2021-11-08T04:51:31Z,42.805,6.029,13.2992,4.60011,2470.273,2021-11-08T06:52:56Z
2021-11-08T04:54:34Z,42.805,6.029,13.2989,4.60010,2470.287,2021-11-08T06:55:59Z
2021-11-08T04:57:37Z,42.805,6.029,13.2991,4.60010,2470.273,2021-11-08T06:59:02Z
2021-11-08T05:00:40Z,42.805,6.029,13.2990,4.60013,2470.297,2021-11-08T07:02:05Z
2021-11-08T05:03:43Z,42.805,6.029,13.2991,4.60011,2470.32,2021-11-08T07:05:08Z
2021-11-08T05:06:46Z,42.805,6.029,13.2993,4.60014,2470.31,2021-11-08T07:08:12Z
2021-11-08T05:09:49Z,42.805,6.029,13.2991,4.60012,2470.297,2021-11-08T07:11:15Z
2021-11-08T05:12:52Z,42.805,6.029,13.2991,4.60013,2470.334,2021-11-08T07:14:18Z
2021-11-08T05:15:56Z,42.805,6.029,13.2994,4.60010,2470.297,2021-11-08T07:17:21Z
2021-11-08T05:18:59Z,42.805,6.029,13.2991,4.60014,2470.297,2021-11-08T07:20:24Z
2021-11-08T05:22:02Z,42.805,6.029,13.2991,4.60011,2470.297,2021-11-08T07:23:27Z
2021-11-08T05:25:05Z,42.805,6.029,13.2996,4.60011,2470.31,2021-11-08T07:26:30Z
2021-11-08T05:28:08Z,42.805,6.029,13.2987,4.60013,2470.297,2021-11-08T07:29:33Z
2021-11-08T05:31:11Z,42.805,6.029,13.2993,4.60010,2470.32,2021-11-08T07:32:37Z
2021-11-08T05:34:14Z,42.805,6.029,13.2992,4.60010,2470.32,2021-11-08T07:35:40Z
2021-11-08T05:37:17Z,42.805,6.029,13.2993,4.60014,2470.297,2021-11-08T07:38:43Z
2021-11-08T05:40:21Z,42.805,6.029,13.2994,4.60011,2470.334,2021-11-08T07:41:46Z
2021-11-08T05:43:24Z,42.805,6.029,13.2992,4.60012,2470.32,2021-11-08T07:44:49Z
2021-11-08T05:46:27Z,42.805,6.029,13.2992,4.60011,2470.343,2021-11-08T07:47:52Z
2021-11-08T05:49:30Z,42.805,6.029,13.2996,4.60014,2470.357,2021-11-08T07:50:55Z
2021-11-08T05:52:33Z,42.805,6.029,13.2991,4.60012,2470.38,2021-11-08T07:53:58Z
2021-11-08T05:55:36Z,42.805,6.029,13.2991,4.60015,2470.334,2021-11-08T07:57:01Z
2021-11-08T05:58:39Z,42.805,6.029,13.2991,4.60013,2470.38,2021-11-08T08:00:05Z
2021-11-08T06:01:42Z,42.805,6.029,13.2994,4.60014,2470.343,2021-11-08T08:03:08Z
2021-11-08T06:04:45Z,42.805,6.029,13.2994,4.60011,2470.38,2021-11-08T08:06:11Z
2021-11-08T06:07:49Z,42.805,6.029,13.2992,4.60012,2470.366,2021-11-08T08:09:14Z
2021-11-08T06:10:52Z,42.805,6.029,13.2991,4.60013,2470.366,2021-11-08T08:12:17Z
2021-11-08T06:13:55Z,42.805,6.029,13.2994,4.60011,2470.38,2021-11-08T08:15:20Z
2021-11-08T06:16:58Z,42.805,6.029,13.2990,4.60012,2470.39,2021-11-08T08:18:23Z
2021-11-08T06:20:01Z,42.805,6.029,13.2989,4.60013,2470.39,2021-11-08T08:21:26Z
2021-11-08T06:23:04Z,42.805,6.029,13.2994,4.60011,2470.404,2021-11-08T08:24:30Z
2021-11-08T06:26:07Z,42.805,6.029,13.2995,4.60011,2470.39,2021-11-08T08:27:33Z
2021-11-08T06:29:10Z,42.805,6.029,13.2991,4.60014,2470.39,2021-11-08T08:30:36Z
2021-11-08T06:32:14Z,42.805,6.029,13.2991,4.60013,2470.404,2021-11-08T08:33:39Z
2021-11-08T06:35:17Z,42.805,6.029,13.2991,4.60011,2470.413,2021-11-08T08:36:42Z
2021-11-08T06:38:20Z,42.805,6.029,13.2993,4.60013,2470.45,2021-11-08T08:39:45Z
2021-11-08T06:41:23Z,42.805,6.029,13.2991,4.60012,2470.404,2021-11-08T08:42:48Z
2021-11-08T06:44:26Z,42.805,6.029,13.2993,4.60011,2470.427,2021-11-08T08:45:51Z
2021-11-08T06:47:29Z,42.805,6.029,13.2993,4.60011,2470.413,2021-11-08T08:48:55Z
2021-11-08T06:50:32Z,42.805,6.029,13.2993,4.60011,2470.45,2021-11-08T08:51:58Z
2021-11-08T06:53:35Z,42.805,6.029,13.2990,4.60011,2470.427,2021-11-08T08:55:01Z
2021-11-08T06:56:38Z,42.805,6.029,13.2992,4.60015,2470.413,2021-11-08T08:58:04Z
2021-11-08T06:59:42Z,42.805,6.029,13.2995,4.60013,2470.45,2021-11-08T09:01:07Z
2021-11-08T07:02:45Z,42.805,6.029,13.2992,4.60014,2470.437,2021-11-08T09:04:10Z
2021-11-08T07:05:48Z,42.805,6.029,13.2993,4.60014,2470.437,2021-11-08T09:07:13Z
2021-11-08T07:08:51Z,42.805,6.029,13.2996,4.60016,2470.46,2021-11-08T09:10:16Z
2021-11-08T07:11:54Z,42.805,6.029,13.2990,4.60013,2470.483,2021-11-08T09:13:19Z
2021-11-08T07:14:57Z,42.805,6.029,13.2992,4.60011,2470.497,2021-11-08T09:16:23Z
2021-11-08T07:18:00Z,42.805,6.029,13.2992,4.60011,2470.483,2021-11-08T09:19:26Z
2021-11-08T07:21:03Z,42.805,6.029,13.2995,4.60011,2470.497,2021-11-08T09:22:29Z
2021-11-08T07:24:07Z,42.805,6.029,13.2994,4.60011,2470.497,2021-11-08T09:25:32Z
2021-11-08T07:27:10Z,42.805,6.029,13.2993,4.60013,2470.46,2021-11-08T09:28:35Z
2021-11-08T07:30:13Z,42.805,6.029,13.2996,4.60013,2470.483,2021-11-08T09:31:38Z
2021-11-08T07:33:16Z,42.805,6.029,13.2993,4.60013,2470.483,2021-11-08T09:34:41Z
2021-11-08T07:36:19Z,42.805,6.029,13.2995,4.60011,2470.507,2021-11-08T09:37:44Z
2021-11-08T07:39:22Z,42.805,6.029,13.2990,4.60014,2470.46,2021-11-08T09:40:48Z
2021-11-08T07:42:25Z,42.805,6.029,13.2994,4.60014,2470.497,2021-11-08T09:43:51Z
2021-11-08T07:45:28Z,42.805,6.029,13.2991,4.60011,2470.507,2021-11-08T09:46:54Z
2021-11-08T07:48:31Z,42.805,6.029,13.2991,4.60011,2470.52,2021-11-08T09:49:57Z
2021-11-08T07:51:35Z,42.805,6.029,13.2993,4.60015,2470.507,2021-11-08T09:53:00Z
2021-11-08T07:54:38Z,42.805,6.029,13.2996,4.60013,2470.507,2021-11-08T09:56:03Z
2021-11-08T07:57:41Z,42.805,6.029,13.2995,4.60014,2470.53,2021-11-08T09:59:06Z
2021-11-08T08:00:44Z,42.805,6.029,13.2995,4.60017,2470.544,2021-11-08T10:02:09Z
2021-11-08T08:03:47Z,42.805,6.029,13.2994,4.60011,2470.507,2021-11-08T10:05:12Z
2021-11-08T08:06:50Z,42.805,6.029,13.2993,4.60011,2470.52,2021-11-08T10:08:16Z
2021-11-08T08:09:53Z,42.805,6.029,13.2991,4.60013,2470.53,2021-11-08T10:11:19Z
2021-11-08T08:12:56Z,42.805,6.029,13.2991,4.60014,2470.53,2021-11-08T10:14:22Z
2021-11-08T08:16:00Z,42.805,6.029,13.2991,4.60012,2470.567,2021-11-08T10:17:25Z
2021-11-08T08:19:03Z,42.805,6.029,13.2991,4.60012,2470.507,2021-11-08T10:20:28Z
2021-11-08T08:22:06Z,42.805,6.029,13.2994,4.60014,2470.507,2021-11-08T10:23:31Z
2021-11-08T08:25:09Z,42.805,6.029,13.2996,4.60013,2470.53,2021-11-08T10:26:34Z
2021-11-08T08:28:12Z,42.805,6.029,13.2995,4.60011,2470.52,2021-11-08T10:29:37Z
2021-11-08T08:31:15Z,42.805,6.029,13.2995,4.60013,2470.567,2021-11-08T10:32:41Z
2021-11-08T08:34:18Z,42.805,6.029,13.2996,4.60014,2470.507,2021-11-08T10:35:44Z
2021-11-08T08:37:21Z,42.805,6.029,13.2991,4.60016,2470.553,2021-11-08T10:38:47Z
2021-11-08T08:40:25Z,42.805,6.029,13.2995,4.60014,2470.53,2021-11-08T10:41:50Z
2021-11-08T08:43:28Z,42.805,6.029,13.2993,4.60013,2470.507,2021-11-08T10:44:53Z
2021-11-08T08:46:31Z,42.805,6.029,13.2995,4.60014,2470.507,2021-11-08T10:47:56Z
2021-11-08T08:49:34Z,42.805,6.029,13.2992,4.60013,2470.53,2021-11-08T10:50:59Z
2021-11-08T08:52:37Z,42.805,6.029,13.2997,4.60013,2470.53,2021-11-08T10:54:02Z
2021-11-08T08:55:40Z,42.805,6.029,13.2996,4.60015,2470.53,2021-11-08T10:57:06Z
2021-11-08T08:58:43Z,42.805,6.029,13.2993,4.60012,2470.53,2021-11-08T11:00:09Z
2021-11-08T09:01:46Z,42.805,6.029,13.2993,4.60013,2470.567,2021-11-08T11:03:12Z
2021-11-08T09:04:49Z,42.805,6.029,13.2992,4.60012,2470.553,2021-11-08T11:06:15Z
2021-11-08T09:07:53Z,42.805,6.029,13.2992,4.60014,2470.53,2021-11-08T11:09:18Z
2021-11-08T09:10:56Z,42.805,6.029,13.2991,4.60017,2470.53,2021-11-08T11:12:21Z
2021-11-08T09:13:59Z,42.805,6.029,13.2995,4.60013,2470.544,2021-11-08T11:15:24Z
2021-11-08T09:17:02Z,42.805,6.029,13.2992,4.60015,2470.52,2021-11-08T11:18:27Z
2021-11-08T09:20:05Z,42.805,6.029,13.2993,4.60015,2470.614,2021-11-08T11:21:31Z
2021-11-08T09:23:08Z,42.805,6.029,13.2993,4.60015,2470.544,2021-11-08T11:24:34Z
2021-11-08T09:26:11Z,42.805,6.029,13.2992,4.60014,2470.567,2021-11-08T11:27:37Z
2021-11-08T09:29:14Z,42.805,6.029,13.2993,4.60013,2470.544,2021-11-08T11:30:40Z
2021-11-08T09:32:18Z,42.805,6.029,13.2992,4.60015,2470.577,2021-11-08T11:33:43Z
2021-11-08T09:35:21Z,42.805,6.029,13.2993,4.60015,2470.567,2021-11-08T11:36:46Z
2021-11-08T09:38:24Z,42.805,6.029,13.2993,4.60014,2470.53,2021-11-08T11:39:49Z
2021-11-08T09:41:27Z,42.805,6.029,13.2997,4.60014,2470.544,2021-11-08T11:42:52Z
2021-11-08T09:44:30Z,42.805,6.029,13.2997,4.60014,2470.577,2021-11-08T11:45:55Z
2021-11-08T09:47:33Z,42.805,6.029,13.2991,4.60015,2470.567,2021-11-08T11:48:59Z
2021-11-08T09:50:36Z,42.805,6.029,13.2995,4.60013,2470.567,2021-11-08T11:52:02Z
2021-11-08T09:53:39Z,42.805,6.029,13.2990,4.60016,2470.53,2021-11-08T11:55:05Z
2021-11-08T09:56:43Z,42.805,6.029,13.2992,4.60013,2470.567,2021-11-08T11:58:08Z
2021-11-08T09:59:46Z,42.805,6.029,13.2995,4.60014,2470.544,2021-11-08T12:01:11Z
2021-11-08T10:02:49Z,42.805,6.029,13.2996,4.60013,2470.553,2021-11-08T12:04:14Z
2021-11-08T10:05:52Z,42.805,6.029,13.2998,4.60015,2470.553,2021-11-08T12:07:17Z
2021-11-08T10:08:55Z,42.805,6.029,13.2995,4.60014,2470.577,2021-11-08T12:10:20Z
2021-11-08T10:11:58Z,42.805,6.029,13.2995,4.60012,2470.553,2021-11-08T12:13:24Z
2021-11-08T10:15:01Z,42.805,6.029,13.2997,4.60014,2470.567,2021-11-08T12:16:27Z
2021-11-08T10:18:04Z,42.805,6.029,13.2993,4.60014,2470.53,2021-11-08T12:19:30Z
2021-11-08T10:21:07Z,42.805,6.029,13.2993,4.60011,2470.544,2021-11-08T12:22:33Z
2021-11-08T10:24:11Z,42.805,6.029,13.2993,4.60013,2470.53,2021-11-08T12:25:36Z
2021-11-08T10:27:14Z,42.805,6.029,13.2993,4.60016,2470.544,2021-11-08T12:28:39Z
2021-11-08T10:30:17Z,42.805,6.029,13.2995,4.60014,2470.567,2021-11-08T12:31:42Z
2021-11-08T10:33:20Z,42.805,6.029,13.2993,4.60012,2470.567,2021-11-08T12:34:45Z
2021-11-08T10:36:23Z,42.805,6.029,13.2995,4.60014,2470.544,2021-11-08T12:37:49Z
2021-11-08T10:39:26Z,42.805,6.029,13.2994,4.60014,2470.53,2021-11-08T12:40:52Z
2021-11-08T10:42:29Z,42.805,6.029,13.2995,4.60013,2470.544,2021-11-08T12:43:55Z
2021-11-08T10:45:32Z,42.805,6.029,13.2997,4.60014,2470.53,2021-11-08T12:46:58Z
2021-11-08T10:48:36Z,42.805,6.029,13.2996,4.60014,2470.52,2021-11-08T12:50:01Z
2021-11-08T10:51:39Z,42.805,6.029,13.2996,4.60014,2470.544,2021-11-08T12:53:04Z
2021-11-08T10:54:42Z,42.805,6.029,13.2996,4.60018,2470.553,2021-11-08T12:56:07Z
2021-11-08T10:57:45Z,42.805,6.029,13.2991,4.60019,2470.53,2021-11-08T12:59:10Z
2021-11-08T11:00:48Z,42.805,6.029,13.2995,4.60021,2470.53,2021-11-08T13:02:14Z
2021-11-08T11:03:51Z,42.805,6.029,13.2993,4.60015,2470.53,2021-11-08T13:05:17Z
2021-11-08T11:06:54Z,42.805,6.029,13.2998,4.60015,2470.544,2021-11-08T13:08:20Z
2021-11-08T11:09:57Z,42.805,6.029,13.2994,4.60013,2470.544,2021-11-08T13:11:23Z
2021-11-08T11:13:01Z,42.805,6.029,13.2996,4.60015,2470.53,2021-11-08T13:14:26Z
2021-11-08T11:16:04Z,42.805,6.029,13.2993,4.60014,2470.507,2021-11-08T13:17:29Z
2021-11-08T11:19:07Z,42.805,6.029,13.2992,4.60014,2470.507,2021-11-08T13:20:32Z
2021-11-08T11:22:10Z,42.805,6.029,13.2998,4.60016,2470.567,2021-11-08T13:23:35Z
2021-11-08T11:25:13Z,42.805,6.029,13.2993,4.60016,2470.507,2021-11-08T13:26:39Z
2021-11-08T11:28:16Z,42.805,6.029,13.2990,4.60016,2470.52,2021-11-08T13:29:42Z
2021-11-08T11:31:19Z,42.805,6.029,13.2993,4.60014,2470.544,2021-11-08T13:32:45Z
2021-11-08T11:34:22Z,42.805,6.029,13.2995,4.60019,2470.507,2021-11-08T13:35:48Z
2021-11-08T11:37:26Z,42.805,6.029,13.2996,4.60019,2470.52,2021-11-08T13:38:51Z
2021-11-08T11:40:29Z,42.805,6.029,13.2998,4.60013,2470.53,2021-11-08T13:41:54Z
2021-11-08T11:43:32Z,42.805,6.029,13.2994,4.60016,2470.483,2021-11-08T13:44:57Z
2021-11-08T11:46:35Z,42.805,6.029,13.2998,4.60015,2470.507,2021-11-08T13:48:00Z
2021-11-08T11:49:38Z,42.805,6.029,13.2992,4.60016,2470.52,2021-11-08T13:51:04Z
2021-11-08T11:52:41Z,42.805,6.029,13.2993,4.60016,2470.507,2021-11-08T13:54:07Z
2021-11-08T11:55:44Z,42.805,6.029,13.2994,4.60014,2470.544,2021-11-08T13:57:10Z
2021-11-08T11:58:47Z,42.805,6.029,13.2995,4.60012,2470.52,2021-11-08T14:00:13Z
2021-11-08T12:01:51Z,42.805,6.029,13.2992,4.60014,2470.483,2021-11-08T14:03:16Z
2021-11-08T12:04:54Z,42.805,6.029,13.2993,4.60019,2470.507,2021-11-08T14:06:19Z
2021-11-08T12:07:57Z,42.805,6.029,13.2998,4.60024,2470.507,2021-11-08T14:09:22Z
2021-11-08T12:11:00Z,42.805,6.029,13.2993,4.60016,2470.497,2021-11-08T14:12:25Z
2021-11-08T12:14:03Z,42.805,6.029,13.2994,4.60014,2470.474,2021-11-08T14:15:28Z
2021-11-08T12:17:06Z,42.805,6.029,13.2996,4.60016,2470.507,2021-11-08T14:18:32Z
2021-11-08T12:20:09Z,42.805,6.029,13.2996,4.60014,2470.507,2021-11-08T14:21:35Z
2021-11-08T12:23:12Z,42.805,6.029,13.2997,4.60016,2470.483,2021-11-08T14:24:38Z
2021-11-08T12:26:16Z,42.805,6.029,13.2993,4.60016,2470.483,2021-11-08T14:27:41Z
2021-11-08T12:29:19Z,42.805,6.029,13.2993,4.60016,2470.46,2021-11-08T14:30:44Z
2021-11-08T12:32:22Z,42.805,6.029,13.2993,4.60014,2470.497,2021-11-08T14:33:47Z
2021-11-08T12:35:25Z,42.805,6.029,13.2995,4.60017,2470.46,2021-11-08T14:36:50Z
2021-11-08T12:38:28Z,42.805,6.029,13.2993,4.60019,2470.46,2021-11-08T14:39:53Z
2021-11-08T12:41:31Z,42.805,6.029,13.2993,4.60014,2470.483,2021-11-08T14:42:57Z
2021-11-08T12:44:34Z,42.805,6.029,13.2992,4.60016,2470.45,2021-11-08T14:46:00Z
2021-11-08T12:47:37Z,42.805,6.029,13.2993,4.60014,2470.497,2021-11-08T14:49:03Z
2021-11-08T12:50:40Z,42.805,6.029,13.2994,4.60019,2470.437,2021-11-08T14:52:06Z
2021-11-08T12:53:44Z,42.805,6.029,13.2993,4.60014,2470.474,2021-11-08T14:55:09Z
2021-11-08T12:56:47Z,42.805,6.029,13.2995,4.60014,2470.46,2021-11-08T14:58:12Z
2021-11-08T12:59:50Z,42.805,6.029,13.2991,4.60015,2470.45,2021-11-08T15:01:15Z
2021-11-08T13:02:53Z,42.805,6.029,13.2994,4.60016,2470.46,2021-11-08T15:04:18Z
2021-11-08T13:05:56Z,42.805,6.029,13.2994,4.60019,2470.437,2021-11-08T15:07:22Z
2021-11-08T13:08:59Z,42.805,6.029,13.2993,4.60019,2470.437,2021-11-08T15:10:25Z
2021-11-08T13:12:02Z,42.805,6.029,13.2996,4.60019,2470.46,2021-11-08T15:13:28Z
2021-11-08T13:15:05Z,42.805,6.029,13.2996,4.60015,2470.46,2021-11-08T15:16:31Z
2021-11-08T13:18:09Z,42.805,6.029,13.2993,4.60016,2470.437,2021-11-08T15:19:34Z
2021-11-08T13:21:12Z,42.805,6.029,13.2991,4.60015,2470.46,2021-11-08T15:22:37Z
2021-11-08T13:24:15Z,42.805,6.029,13.2995,4.60016,2470.474,2021-11-08T15:25:40Z
2021-11-08T13:27:18Z,42.805,6.029,13.2992,4.60016,2470.413,2021-11-08T15:28:43Z
2021-11-08T13:30:21Z,42.805,6.029,13.2996,4.60014,2470.413,2021-11-08T15:31:47Z
2021-11-08T13:33:24Z,42.805,6.029,13.2997,4.60014,2470.45,2021-11-08T15:34:50Z
2021-11-08T13:36:27Z,42.805,6.029,13.2993,4.60014,2470.437,2021-11-08T15:37:53Z
2021-11-08T13:39:30Z,42.805,6.029,13.2997,4.60014,2470.413,2021-11-08T15:40:56Z
2021-11-08T13:42:34Z,42.805,6.029,13.2995,4.60014,2470.427,2021-11-08T15:43:59Z
2021-11-08T13:45:37Z,42.805,6.029,13.2994,4.60013,2470.437,2021-11-08T15:47:02Z
2021-11-08T13:48:40Z,42.805,6.029,13.2998,4.60013,2470.413,2021-11-08T15:50:05Z
2021-11-08T13:51:43Z,42.805,6.029,13.2997,4.60013,2470.413,2021-11-08T15:53:08Z
2021-11-08T13:54:46Z,42.805,6.029,13.2991,4.60014,2470.437,2021-11-08T15:56:12Z
2021-11-08T13:57:49Z,42.805,6.029,13.2993,4.60014,2470.413,2021-11-08T15:59:15Z
2021-11-08T14:00:52Z,42.805,6.029,13.2993,4.60014,2470.45,2021-11-08T16:02:18Z
2021-11-08T14:03:55Z,42.805,6.029,13.2990,4.60016,2470.437,2021-11-08T16:05:21Z
2021-11-08T14:06:59Z,42.805,6.029,13.2991,4.60018,2470.413,2021-11-08T16:08:24Z
2021-11-08T14:10:02Z,42.805,6.029,13.2996,4.60015,2470.39,2021-11-08T16:11:27Z
2021-11-08T14:13:05Z,42.805,6.029,13.2995,4.60014,2470.427,2021-11-08T16:14:30Z
2021-11-08T14:16:08Z,42.805,6.029,13.2995,4.60014,2470.413,2021-11-08T16:17:33Z
2021-11-08T14:19:11Z,42.805,6.029,13.2993,4.60016,2470.427,2021-11-08T16:20:37Z
2021-11-08T14:22:14Z,42.805,6.029,13.2995,4.60019,2470.413,2021-11-08T16:23:40Z
2021-11-08T14:25:17Z,42.805,6.029,13.2991,4.60016,2470.39,2021-11-08T16:26:43Z
2021-11-08T14:28:20Z,42.805,6.029,13.2993,4.60014,2470.413,2021-11-08T16:29:46Z
2021-11-08T14:31:24Z,42.805,6.029,13.2992,4.60015,2470.427,2021-11-08T16:32:49Z
2021-11-08T14:34:27Z,42.805,6.029,13.2996,4.60014,2470.427,2021-11-08T16:35:52Z
2021-11-08T14:37:30Z,42.805,6.029,13.2992,4.60014,2470.413,2021-11-08T16:38:55Z
2021-11-08T14:40:33Z,42.805,6.029,13.2994,4.60014,2470.39,2021-11-08T16:41:58Z
2021-11-08T14:43:36Z,42.805,6.029,13.2997,4.60017,2470.39,2021-11-08T16:45:02Z
2021-11-08T14:46:39Z,42.805,6.029,13.2993,4.60016,2470.427,2021-11-08T16:48:05Z
2021-11-08T14:49:42Z,42.805,6.029,13.2995,4.60016,2470.38,2021-11-08T16:51:08Z
2021-11-08T14:52:45Z,42.805,6.029,13.2994,4.60018,2470.427,2021-11-08T16:54:11Z
2021-11-08T14:55:49Z,42.805,6.029,13.2995,4.60017,2470.39,2021-11-08T16:57:14Z
2021-11-08T14:58:52Z,42.805,6.029,13.2991,4.60015,2470.39,2021-11-08T17:00:17Z
2021-11-08T15:01:55Z,42.805,6.029,13.2993,4.60018,2470.404,2021-11-08T17:03:20Z